Location: Lanoux
(43.1180°N, 1.4255°E)
Time: 14:30:39
(UTC+00:00)

ARIANE 6 FM1 Upper Stage - Visible Passes

Search period start: 15 February 2026 00:00
Search period end: 25 February 2026 00:00
Orbit: 522 x 609 km, 62.0° (Epoch: 15 February)

Date Brightness Start Highest point End Pass type
(mag) Time Alt. Az. Time Alt. Az. Time Alt. Az.
15 Feb 3.0 19:18:47 10° NNW 19:22:03 48° N 19:22:03 48° N visible
16 Feb 2.3 19:18:43 10° NW 19:22:41 81° NE 19:22:43 81° ENE visible
17 Feb 2.7 19:18:42 10° NW 19:22:37 67° SW 19:23:34 47° S visible
18 Feb 3.6 19:18:46 10° NW 19:22:32 43° WSW 19:24:37 23° S visible
19 Feb 4.4 19:18:57 10° WNW 19:22:23 29° WSW 19:25:51 10° S visible
20 Feb 5.1 19:19:19 10° WNW 19:22:13 20° WSW 19:25:07 10° SSW visible
21 Feb 5.6 19:20:05 10° W 19:21:59 13° WSW 19:23:55 10° SW visible
